Flag for China Weather past 2 weeks in Chongqing, Chongqing Municipality, China

Now
79 °F

Clear.


Feels Like: 80 °F
Forecast: 77 / 94 °F
Wind: 1 mph from North

Location: Chongqing Airport

Current Time: Apr 1, 2015 at 6:24:07 AM

Latest Report: Apr 1, 2015 at 5:00 AM


Visibility: 10 mi

Pressure: 29.39 "Hg

Humidity: 54%

Dew point: 61 °F

Location of ChongqingLocation

Historic Weather in Chongqing — Graph

°F

Chongqing temperature yesterday

Maximum temperature yesterday: 88 °F (at 3:00 PM)
Minimum temperature yesterday: 68 °F (at 3:00 AM)
Average temperature yesterday: 78 °F

Past Weeks' High & Low Weather Summary

 TemperatureHumidityPressure
High88 °F (Mar 31, 3:00 PM)94% (Mar 27, 4:00 PM)30.33 "Hg (Mar 27, 4:00 PM)
Low54 °F (Mar 21, 1:00 AM)36% (Mar 25, 2:00 PM)29.39 "Hg (Apr 1, 5:00 AM)
Average66 °F68%29.97 "Hg
* Reported Mar 17 5:00 AM — Apr 1 5:00 AM, Chongqing, Weather by CustomWeather, © 2015

Note: Actual official high and low records may vary slightly from our data, if they occured in-between our weather recording intervals... More about our weather records

Advertising

Chongqing weather history for previous 24 hours

 ConditionsComfort  
Time TempWeatherWind HumidityBarometerVisibility
5:00 AM
Wed, Apr 1
79 °FClear.1 mph54%29.39 "Hg10 mi
4:00 AM81 °FPassing clouds.6 mph51%29.42 "HgN/A
3:00 AM79 °FClear.8 mph54%29.42 "Hg10 mi
2:00 AM81 °FClear.8 mph51%29.45 "Hg10 mi
1:00 AM81 °FClear.8 mph51%29.47 "Hg10 mi
12:00 AM81 °FPassing clouds.8 mph51%29.47 "HgN/A
11:00 PM
Tue, Mar 31
81 °FClear.6 mph51%29.47 "Hg10 mi
10:00 PM82 °FClear.10 mph48%29.47 "Hg10 mi
9:00 PM82 °FClear.10 mph48%29.47 "Hg10 mi
8:00 PM84 °FClear.13 mph45%29.45 "Hg10 mi
7:00 PM84 °FSunny.10 mph45%29.45 "Hg10 mi
6:00 PM86 °FSunny.8 mph43%29.45 "Hg10 mi
5:00 PM88 °FPassing clouds.6 mph43%29.45 "HgN/A
4:00 PM88 °FSunny.3 mph40%29.45 "Hg10 mi
3:00 PM88 °FPassing clouds.3 mph40%29.47 "HgN/A
2:00 PM86 °FPassing clouds.3 mph43%29.50 "HgN/A
1:00 PM86 °FSunny.3 mph46%29.53 "Hg10 mi
12:00 PM84 °FSunny.3 mph45%29.56 "Hg10 mi
11:00 AM81 °FSunny.3 mph54%29.59 "Hg10 mi
10:00 AM79 °FSunny.8 mph58%29.59 "Hg10 mi
9:00 AM75 °FSunny.8 mph61%29.59 "Hg10 mi
8:00 AM70 °FSunny.8 mph73%29.56 "Hg10 mi
7:00 AM68 °FSunny.8 mph73%29.56 "Hg10 mi
6:00 AM68 °FClear.8 mph73%29.50 "Hg10 mi
Weather by CustomWeather, © 2015

See weather overviewHow to use our weather pages